Вернуться в каталог

STARLINK-36769

АктивенСвязьVLEO
NORAD 67871·PAYLOAD·🇺🇸 United States

Запущен Feb 20, 2026 с Vandenberg Space Force Base

Loading…

Ближайшие Пролёты (ближайшие 24 часа)

TLE

СвежийSource: CelesTrak SupGP

Эпоха: Sep 15, 2026, 03:38 UTC

1 67871C 26034X   26258.15187500  .00007144  00000+0  21122-3 0  2588
2 67871  53.1597  42.8453 0001220  92.3927 223.5598 15.34365708    11

Отслеживайте STARLINK-36769 в реальном времени с AllMySat

Download on the App Store